| time (UTC) | temp F | wind direction | speed MPH | gust MPH | rain 1hr in | rain 24hr in | rain mn in | humidity % | barometer mb |
| 20260831141401 | 78 | 48 | 3.0 | 5.0 | 0.00 | 0.02 | 0.00 | 89 | 1018.8 |
| 20260831140401 | 77 | 40 | 2.0 | 9.0 | 0.00 | 0.02 | 0.00 | 90 | 1018.8 |
| 20260831135424 | 77 | 19 | 4.0 | 9.0 | 0.00 | 0.02 | 0.00 | 90 | 1018.8 |
| 20260831134402 | 77 | 37 | 2.0 | 12.0 | 0.00 | 0.02 | 0.00 | 89 | 1019.1 |
| 20260831133422 | 77 | 354 | 3.0 | 6.0 | 0.00 | 0.02 | 0.00 | 89 | 1019.1 |
| 20260831132401 | 77 | 34 | 3.0 | 8.0 | 0.00 | 0.02 | 0.00 | 90 | 1018.9 |
| 20260831131401 | 77 | 10 | 4.0 | 9.0 | 0.00 | 0.02 | 0.00 | 91 | 1018.9 |
| 20260831130402 | 77 | 15 | 5.0 | 9.0 | 0.00 | 0.02 | 0.00 | 91 | 1018.7 |
| 20260831125401 | 77 | 19 | 5.0 | 10.0 | 0.00 | 0.02 | 0.00 | 91 | 1018.6 |
| 20260831124401 | 76 | 24 | 4.0 | 11.0 | 0.00 | 0.02 | 0.00 | 92 | 1018.5 |
| 20260831123401 | 76 | 17 | 1.0 | 6.0 | 0.00 | 0.02 | 0.00 | 95 | 1018.6 |
| 20260831122401 | 76 | 9 | 2.0 | 8.0 | 0.00 | 0.02 | 0.00 | 96 | 1018.5 |
| 20260831121402 | 75 | 12 | 0.0 | 5.0 | 0.00 | 0.02 | 0.00 | 96 | 1018.5 |
| 20260831120401 | 75 | 19 | 2.0 | 7.0 | 0.00 | 0.02 | 0.00 | 96 | 1018.5 |
| 20260831115402 | 75 | 51 | 1.0 | 4.0 | 0.00 | 0.02 | 0.00 | 97 | 1018.4 |
| 20260831114401 | 74 | 43 | 1.0 | 7.0 | 0.00 | 0.02 | 0.00 | 97 | 1018.4 |
| 20260831113402 | 74 | 22 | 2.0 | 5.0 | 0.00 | 0.02 | 0.00 | 97 | 1018.4 |
| 20260831112402 | 74 | 29 | 2.0 | 8.0 | 0.00 | 0.02 | 0.00 | 98 | 1018.0 |
| 20260831111424 | 74 | 40 | 1.0 | 5.0 | 0.00 | 0.02 | 0.00 | 98 | 1017.9 |
| 20260831110423 | 73 | 26 | 2.0 | 4.0 | 0.00 | 0.02 | 0.00 | 98 | 1017.9 |
| 20260831105402 | 72 | 117 | 0.0 | 0.0 | 0.00 | 0.02 | 0.00 | 97 | 1017.6 |
| 20260831104401 | 71 | 117 | 0.0 | 0.0 | 0.00 | 0.02 | 0.00 | 97 | 1017.8 |
| 20260831103402 | 71 | 117 | 0.0 | 0.0 | 0.00 | 0.02 | 0.00 | 97 | 1017.7 |
| 20260831102402 | 71 | 117 | 0.0 | 0.0 | 0.00 | 0.02 | 0.00 | 97 | 1017.7 |
| 20260831101425 | 71 | 117 | 0.0 | 0.0 | 0.00 | 0.02 | 0.00 | 97 | 1017.5 |
| 20260831100401 | 71 | 117 | 0.0 | 0.0 | 0.00 | 0.02 | 0.00 | 97 | 1017.3 |
| 20260831095402 | 71 | 117 | 0.0 | 0.0 | 0.00 | 0.02 | 0.00 | 97 | 1017.2 |
| 20260831094402 | 71 | 117 | 0.0 | 0.0 | 0.00 | 0.02 | 0.00 | 97 | 1017.3 |
| 20260831093425 | 71 | 117 | 0.0 | 0.0 | 0.00 | 0.02 | 0.00 | 97 | 1017.2 |
| 20260831092425 | 71 | 117 | 0.0 | 0.0 | 0.00 | 0.02 | 0.00 | 97 | 1017.2 |
| 20260831091403 | 71 | 117 | 0.0 | 0.0 | 0.00 | 0.02 | 0.00 | 96 | 1017.2 |
| 20260831090446 | 71 | 117 | 0.0 | 0.0 | 0.00 | 0.02 | 0.00 | 96 | 1017.2 |
| 20260831085402 | 72 | 117 | 0.0 | 0.0 | 0.00 | 0.02 | 0.00 | 96 | 1017.2 |
| 20260831084402 | 72 | 117 | 0.0 | 0.0 | 0.00 | 0.02 | 0.00 | 96 | 1017.3 |
| 20260831083402 | 72 | 117 | 0.0 | 0.0 | 0.00 | 0.02 | 0.00 | 96 | 1017.1 |
| 20260831082403 | 72 | 117 | 0.0 | 0.0 | 0.00 | 0.02 | 0.00 | 96 | 1017.2 |
| 20260831081402 | 72 | 117 | 0.0 | 0.0 | 0.00 | 0.02 | 0.00 | 96 | 1017.1 |
| 20260831080402 | 72 | 117 | 0.0 | 0.0 | 0.00 | 0.02 | 0.00 | 96 | 1017.1 |
| 20260831075403 | 72 | 117 | 0.0 | 0.0 | 0.00 | 0.02 | 0.00 | 96 | 1017.2 |
| 20260831074402 | 72 | 117 | 0.0 | 0.0 | 0.00 | 0.02 | 0.00 | 96 | 1017.3 |
| 20260831073403 | 72 | 117 | 0.0 | 0.0 | 0.00 | 0.02 | 0.00 | 96 | 1017.3 |
| 20260831072402 | 72 | 117 | 0.0 | 0.0 | 0.00 | 0.02 | 0.00 | 96 | 1017.4 |
| 20260831071403 | 72 | 117 | 0.0 | 0.0 | 0.00 | 0.02 | 0.00 | 96 | 1017.3 |
| 20260831070403 | 72 | 117 | 0.0 | 0.0 | 0.00 | 0.02 | 0.00 | 96 | 1017.3 |
| 20260831065402 | 72 | 117 | 0.0 | 0.0 | 0.00 | 0.02 | 0.00 | 96 | 1017.4 |
| 20260831064404 | 72 | 117 | 0.0 | 0.0 | 0.00 | 0.02 | 0.00 | 96 | 1017.4 |
| 20260831063403 | 72 | 117 | 0.0 | 0.0 | 0.00 | 0.02 | 0.00 | 96 | 1017.4 |
| 20260831062402 | 72 | 117 | 0.0 | 0.0 | 0.00 | 0.02 | 0.00 | 96 | 1017.4 |
| 20260831060359 | 73 | 117 | 0.0 | 0.0 | 0.00 | 0.02 | 0.00 | 96 | 1017.6 |
| 20260831055358 | 73 | 117 | 0.0 | 0.0 | 0.00 | 0.02 | 0.00 | 96 | 1017.7 |
| 20260831054400 | 73 | 117 | 0.0 | 0.0 | 0.00 | 0.02 | 0.00 | 96 | 1017.8 |
| 20260831053358 | 73 | 117 | 0.0 | 0.0 | 0.00 | 0.02 | 0.00 | 95 | 1017.6 |
| 20260831052358 | 73 | 117 | 0.0 | 0.0 | 0.00 | 0.02 | 0.00 | 95 | 1017.6 |
| 20260831051358 | 73 | 117 | 0.0 | 0.0 | 0.00 | 0.02 | 0.00 | 95 | 1017.5 |
| 20260831050359 | 73 | 117 | 0.0 | 0.0 | 0.00 | 0.02 | 0.00 | 95 | 1017.5 |
| 20260831045358 | 73 | 117 | 0.0 | 0.0 | 0.00 | 0.02 | 0.00 | 95 | 1017.6 |
| 20260831044419 | 74 | 117 | 0.0 | 0.0 | 0.00 | 0.02 | 0.00 | 95 | 1017.6 |
| 20260831043359 | 74 | 117 | 0.0 | 0.0 | 0.00 | 0.02 | 0.00 | 95 | 1017.6 |
| 20260831042419 | 74 | 117 | 0.0 | 0.0 | 0.00 | 0.02 | 0.00 | 95 | 1017.7 |
| 20260831041400 | 74 | 117 | 0.0 | 0.0 | 0.00 | 0.02 | 0.00 | 95 | 1017.7 |
| 20260831040359 | 74 | 117 | 0.0 | 0.0 | 0.00 | 0.04 | 0.02 | 95 | 1017.8 |
| 20260831035358 | 74 | 117 | 0.0 | 0.0 | 0.00 | 0.02 | 0.02 | 95 | 1017.7 |
| 20260831034359 | 74 | 117 | 0.0 | 0.0 | 0.00 | 0.02 | 0.02 | 95 | 1017.8 |
| 20260831033359 | 74 | 117 | 0.0 | 0.0 | 0.00 | 0.02 | 0.02 | 95 | 1017.7 |
| 20260831032419 | 74 | 117 | 0.0 | 0.0 | 0.00 | 0.02 | 0.02 | 95 | 1017.9 |
| 20260831031359 | 75 | 117 | 0.0 | 0.0 | 0.00 | 0.02 | 0.02 | 95 | 1017.9 |
| 20260831030420 | 75 | 117 | 0.0 | 2.0 | 0.00 | 0.02 | 0.02 | 94 | 1017.9 |
| 20260831025358 | 75 | 117 | 0.0 | 0.0 | 0.00 | 0.02 | 0.02 | 95 | 1018.0 |
| 20260831024421 | 75 | 117 | 0.0 | 0.0 | 0.00 | 0.02 | 0.02 | 94 | 1018.1 |
| 20260831023359 | 76 | 117 | 0.0 | 0.0 | 0.00 | 0.02 | 0.02 | 95 | 1018.0 |
| 20260831022359 | 76 | 117 | 0.0 | 0.0 | 0.00 | 0.02 | 0.02 | 94 | 1018.2 |
| 20260831021359 | 76 | 117 | 0.0 | 1.0 | 0.00 | 0.02 | 0.02 | 94 | 1018.1 |
| 20260831020358 | 76 | 117 | 0.0 | 1.0 | 0.00 | 0.02 | 0.02 | 94 | 1018.1 |
| 20260831015420 | 77 | 117 | 0.0 | 2.0 | 0.00 | 0.02 | 0.02 | 94 | 1018.2 |
| 20260831014359 | 77 | 117 | 0.0 | 2.0 | 0.00 | 0.02 | 0.02 | 94 | 1018.3 |
| 20260831013359 | 77 | 117 | 0.0 | 0.0 | 0.00 | 0.02 | 0.02 | 94 | 1018.2 |
| 20260831012359 | 77 | 117 | 0.0 | 0.0 | 0.00 | 0.02 | 0.02 | 93 | 1018.2 |
| 20260831011359 | 77 | 117 | 0.0 | 4.0 | 0.00 | 0.02 | 0.02 | 93 | 1018.0 |
| 20260831010359 | 78 | 117 | 0.0 | 3.0 | 0.00 | 0.02 | 0.02 | 93 | 1018.0 |
| 20260831005359 | 78 | 117 | 1.0 | 3.0 | 0.01 | 0.02 | 0.02 | 93 | 1017.9 |
| 20260831004359 | 78 | 118 | 1.0 | 4.0 | 0.01 | 0.02 | 0.02 | 92 | 1017.9 |
| 20260831003359 | 78 | 119 | 0.0 | 2.0 | 0.01 | 0.02 | 0.02 | 92 | 1017.9 |
| 20260831002359 | 78 | 119 | 0.0 | 0.0 | 0.00 | 0.01 | 0.01 | 92 | 1017.6 |
| 20260831001359 | 78 | 118 | 0.0 | 4.0 | 0.00 | 0.01 | 0.01 | 91 | 1017.5 |
| 20260831000359 | 78 | 128 | 2.0 | 5.0 | 0.00 | 0.01 | 0.01 | 91 | 1017.3 |
| 20260830235359 | 78 | 115 | 2.0 | 7.0 | 0.00 | 0.01 | 0.01 | 90 | 1017.3 |
| 20260830234359 | 79 | 111 | 1.0 | 3.0 | 0.00 | 0.01 | 0.01 | 90 | 1017.3 |
| 20260830233359 | 79 | 111 | 1.0 | 3.0 | 0.00 | 0.01 | 0.01 | 89 | 1017.3 |
| 20260830232359 | 80 | 111 | 1.0 | 3.0 | 0.00 | 0.01 | 0.01 | 89 | 1017.4 |
| 20260830231359 | 80 | 111 | 1.0 | 3.0 | 0.00 | 0.01 | 0.01 | 88 | 1017.5 |
| 20260830230359 | 81 | 112 | 0.0 | 5.0 | 0.00 | 0.01 | 0.01 | 88 | 1017.6 |
| 20260830225421 | 82 | 121 | 1.0 | 5.0 | 0.00 | 0.00 | 0.00 | 85 | 1017.5 |
| 20260830224359 | 83 | 127 | 3.0 | 7.0 | 0.00 | 0.00 | 0.00 | 82 | 1017.4 |
| 20260830223400 | 83 | 120 | 2.0 | 8.0 | 0.00 | 0.00 | 0.00 | 80 | 1017.4 |
| 20260830222359 | 84 | 101 | 2.0 | 9.0 | 0.00 | 0.00 | 0.00 | 79 | 1017.3 |
| 20260830221400 | 84 | 122 | 2.0 | 9.0 | 0.00 | 0.00 | 0.00 | 79 | 1017.3 |
| 20260830220401 | 84 | 118 | 2.0 | 9.0 | 0.00 | 0.00 | 0.00 | 78 | 1017.3 |
| 20260830215359 | 85 | 105 | 3.0 | 8.0 | 0.00 | 0.00 | 0.00 | 76 | 1017.2 |
| 20260830214400 | 85 | 98 | 4.0 | 9.0 | 0.00 | 0.00 | 0.00 | 74 | 1017.2 |
| 20260830213359 | 86 | 113 | 2.0 | 4.0 | 0.00 | 0.00 | 0.00 | 70 | 1017.0 |
| 20260830212421 | 87 | 117 | 1.0 | 5.0 | 0.00 | 0.00 | 0.00 | 68 | 1017.1 |
| 20260830211400 | 88 | 233 | 2.0 | 6.0 | 0.00 | 0.00 | 0.00 | 67 | 1017.1 |
| 20260830210400 | 88 | 141 | 3.0 | 7.0 | 0.00 | 0.00 | 0.00 | 66 | 1017.1 |
| 20260830205359 | 87 | 161 | 3.0 | 10.0 | 0.00 | 0.00 | 0.00 | 67 | 1017.3 |
| 20260830204400 | 89 | 261 | 1.0 | 10.0 | 0.00 | 0.00 | 0.00 | 65 | 1017.3 |
| 20260830203359 | 89 | 233 | 2.0 | 7.0 | 0.00 | 0.00 | 0.00 | 64 | 1017.3 |
| 20260830202400 | 89 | 128 | 5.0 | 11.0 | 0.00 | 0.00 | 0.00 | 63 | 1017.3 |
| 20260830201400 | 90 | 272 | 3.0 | 6.0 | 0.00 | 0.00 | 0.00 | 63 | 1017.1 |
| 20260830200400 | 90 | 163 | 2.0 | 7.0 | 0.00 | 0.00 | 0.00 | 62 | 1017.2 |
| 20260830195400 | 89 | 225 | 6.0 | 9.0 | 0.00 | 0.00 | 0.00 | 62 | 1017.5 |
| 20260830194400 | 89 | 252 | 5.0 | 11.0 | 0.00 | 0.00 | 0.00 | 64 | 1017.7 |
| 20260830193400 | 89 | 113 | 1.0 | 6.0 | 0.00 | 0.00 | 0.00 | 67 | 1017.8 |
| 20260830192400 | 89 | 124 | 3.0 | 9.0 | 0.00 | 0.00 | 0.00 | 65 | 1018.0 |
| 20260830191422 | 89 | 134 | 2.0 | 9.0 | 0.00 | 0.00 | 0.00 | 67 | 1018.1 |
| 20260830190400 | 88 | 202 | 2.0 | 8.0 | 0.00 | 0.00 | 0.00 | 67 | 1018.3 |
| 20260830185400 | 87 | 185 | 3.0 | 9.0 | 0.00 | 0.00 | 0.00 | 67 | 1018.5 |
| 20260830184400 | 88 | 170 | 3.0 | 10.0 | 0.00 | 0.00 | 0.00 | 65 | 1018.5 |
| 20260830183400 | 88 | 197 | 2.0 | 11.0 | 0.00 | 0.00 | 0.00 | 69 | 1018.6 |
| 20260830182401 | 87 | 258 | 2.0 | 11.0 | 0.00 | 0.00 | 0.00 | 69 | 1018.8 |
| 20260830181421 | 86 | 156 | 3.0 | 12.0 | 0.00 | 0.00 | 0.00 | 69 | 1019.1 |
| 20260830180401 | 87 | 69 | 4.0 | 12.0 | 0.00 | 0.00 | 0.00 | 69 | 1019.0 |
| 20260830175400 | 87 | 183 | 3.0 | 9.0 | 0.00 | 0.00 | 0.00 | 70 | 1019.1 |
| 20260830174400 | 86 | 209 | 2.0 | 10.0 | 0.00 | 0.00 | 0.00 | 70 | 1019.3 |
| 20260830173400 | 86 | 130 | 4.0 | 11.0 | 0.00 | 0.00 | 0.00 | 71 | 1019.6 |
| 20260830172401 | 85 | 176 | 3.0 | 8.0 | 0.00 | 0.00 | 0.00 | 72 | 1019.8 |
| 20260830171400 | 86 | 156 | 3.0 | 10.0 | 0.00 | 0.00 | 0.00 | 72 | 1019.9 |
| 20260830170422 | 86 | 82 | 2.0 | 11.0 | 0.00 | 0.00 | 0.00 | 73 | 1019.8 |
| 20260830165422 | 85 | 212 | 3.0 | 9.0 | 0.00 | 0.00 | 0.00 | 74 | 1020.0 |
| 20260830164422 | 85 | 191 | 4.0 | 12.0 | 0.00 | 0.00 | 0.00 | 73 | 1020.3 |
| 20260830163401 | 85 | 172 | 3.0 | 9.0 | 0.00 | 0.00 | 0.00 | 75 | 1020.3 |
| 20260830162401 | 84 | 145 | 3.0 | 8.0 | 0.00 | 0.00 | 0.00 | 77 | 1020.4 |
| 20260830161401 | 83 | 178 | 2.0 | 9.0 | 0.00 | 0.00 | 0.00 | 78 | 1020.6 |
| 20260830160401 | 83 | 159 | 2.0 | 7.0 | 0.00 | 0.00 | 0.00 | 78 | 1020.6 |
| 20260830155400 | 83 | 130 | 3.0 | 9.0 | 0.00 | 0.00 | 0.00 | 79 | 1020.7 |
| 20260830154401 | 82 | 267 | 3.0 | 6.0 | 0.00 | 0.00 | 0.00 | 80 | 1020.7 |
| 20260830153401 | 81 | 124 | 4.0 | 8.0 | 0.00 | 0.00 | 0.00 | 80 | 1020.8 |
| 20260830152401 | 81 | 123 | 4.0 | 9.0 | 0.00 | 0.00 | 0.00 | 82 | 1020.7 |
| 20260830151401 | 81 | 64 | 2.0 | 7.0 | 0.00 | 0.00 | 0.00 | 83 | 1020.6 |
| 20260830150423 | 80 | 122 | 2.0 | 8.0 | 0.00 | 0.00 | 0.00 | 83 | 1020.6 |
| 20260830145401 | 80 | 185 | 4.0 | 9.0 | 0.00 | 0.00 | 0.00 | 84 | 1020.7 |
| 20260830144401 | 79 | 98 | 2.0 | 10.0 | 0.00 | 0.00 | 0.00 | 86 | 1020.7 |
| 20260830143401 | 79 | 199 | 4.0 | 8.0 | 0.00 | 0.00 | 0.00 | 85 | 1020.9 |
| 20260830142401 | 79 | 262 | 2.0 | 13.0 | 0.00 | 0.00 | 0.00 | 86 | 1020.8 |